Regional Weather Roundup
Issued by NWS Newport/Morehead, NC

Current Version | Previous Version | Text Only | Print | Product List | Glossary On
Versions: 1 2 3 4 5 6 7 8 9 10 11 12 13 14 15 16 17 18 19 20 21 22 23 24 25 26 27 28 29 30 31 32 33 34 35 36 37 38 39 40 41 42 43 44 45 46 47 48 49 50
000
ASUS42 KMHX 290613
RWRMHX
WEATHER ROUNDUP FOR EASTERN NORTH CAROLINA
NATIONAL WEATHER SERVICE NEWPORT/MOREHEAD CITY NC
200 AM EDT FRI APR 29 2016

NOTE: "FAIR" INDICATES FEW OR NO CLOUDS BELOW 12,000 FEET
WITH NO SIGNIFICANT WEATHER AND/OR OBSTRUCTIONS TO VISIBILITY

NCZ015>017-031-032-045>047-102-103-290700-
NORTH COAST

CITY           SKY/WX    TMP DP  RH WIND       PRES   REMARKS
EDENTON        CLOUDY    59  59 100 N8        29.92F FOG
ELIZABETH CITY CLOUDY    58  57  97 N14       29.92F
KITTY HAWK     NOT AVBL
MANTEO         NOT AVBL

$$

NCZ045>047-081-094-103-104-290700-
CENTRAL COAST

CITY           SKY/WX    TMP DP  RH WIND       PRES   REMARKS
FRISCO         LGT RAIN  68  67  96 W3        29.88F
SWANQUARTER    NOT AVBL

$$

NCZ095-097-098-100-101-290700-
SOUTHERN COAST

CITY           SKY/WX    TMP DP  RH WIND       PRES   REMARKS
BEAUFORT       CLOUDY    70  66  87 CALM      29.90F
CEDAR ISLAND   NOT AVBL
JACKSONVILLE   PTCLDY    68  62  81 S3        29.88F
PINEY ISLAND   NOT AVBL
WILMINGTON     CLEAR     71  65  81 SW10      29.88S


$$

NCZ011>013-027>030-043-044-078>080-089-090>093-098-290700-
COASTAL PLAIN

CITY           SKY/WX    TMP DP  RH WIND       PRES   REMARKS
AHOSKIE        CLOUDY    56  55  94 N9        29.94R
CLINTON        LGT RAIN  69  68  98 W5        29.90R
ELIZABETHTOWN  CLEAR     68  66  92 S3        29.88S
GOLDSBORO      NOT AVBL
GREENVILLE     LGT RAIN  64  64 100 NE5       29.92F
HAVELOCK       TSTM      69  66  90 E6        29.90S
KENANSVILLE    CLOUDY    69  64  85 CALM      29.90R
KINSTON        CLOUDY    66  66  98 NE5       29.91R
NEW BERN       CLOUDY    67  65  93 S5        29.89F
RICHLANDS      MOCLDY    67  64  90 CALM      29.89S
ROCKY MOUNT    CLOUDY    64  64 100 N13       29.91R FOG
WASHINGTON     CLOUDY    66  64  94 NW3       29.90R
WHITEVILLE     CLEAR     68  65  91 SW5       29.88S

$$

AMZ130-135-150-152-154-156-158-170-250-252-270-ANZ085-086-088-633-658-670-290700-
MARINE OBSERVATIONS

STATION/POSITION TIME  TEMP    WIND        PRES    WAVE   SWELL
                       AIR SEA DIR/SP/G            HT/PER HT/PER
                 (UTC) (F)     (DEG/KT/KT) (MB)    (FT/S) (FT/S)
CHESAPEAKE LIGHT 0500   53      50/ 20/ 22 1013.9
64 E VA BEACH    0550   58 54   10/  8/  8 1012.6    3/ 6   3/ 6
DUCK             0500   58 66   10/  9/ 12 1012.6
2 E DUCK         0511      58                N/A     3/ 4
OREGON INLET     0500   62 70  290/  6/ 10 1012.6
13E OREGON INLT  0600      59                N/A     4/ 6   3/ 6
HATTERAS CG      0500   70 70  240/ 10/ 16 1012.8
DIAMOND BUOY     0550   72 71  240/ 14/ 16 1011.8    4/ 5   2/ 9
CAPE LOOKOUT     0500   70     210/  8/ 10 1012.2
BEAUFORT LAB     0500   69 67  220/  5/  8 1011.7
30 SE NEW RVR IN 0525      67                N/A     4/ 5
27 SE WRIGHTSVLE 0508   71 69  220/ 14/ 16 1015.2
5 SE WRIGHTSVLE  0508   69 67  220/ 12/ 16 1012.3
225 S CAPE HAT   0450   71 71  180/ 12/ 14 1015.8    2/ 9   2/ 9
41 SE CHARLESTON 0550   74 71  220/ 14/ 16 1013.1    3/ 5   2/ 8

$$




USA.gov is the U.S. government's official web portal to all federal, state and local government web resources and services.